ANA1226 RKSI-RJFF

Flight info

Callsign ANA1226
Flight time N/A
Altitude 41000
Route OSPOT Y782 TGU Y781 BESNA Y209 IKE
Aircraft B772/H-SDE2E3FGHIJ5LORVWXY/LB1D1

Departure

Time 2026-05-07 13:17
Airport Incheon International Airport (RKSI)

Arrival

Time N/A
Airport Fukuoka Airport (RJFF)
Time Latitude Longitude Altitude Speed Heading
2026-05-07 12:59 37.45491 126.44506 36 ft 0 kts 324°
2026-05-07 13:06 37.45490 126.44506 37 ft 1 kts 324°
2026-05-07 13:06 37.45470 126.44524 33 ft 4 kts 324°
2026-05-07 13:06 37.45451 126.44540 34 ft 4 kts 347°
2026-05-07 13:07 37.45430 126.44535 37 ft 4 kts 49°
2026-05-07 13:07 37.45416 126.44511 35 ft 1 kts 54°
2026-05-07 13:07 37.45414 126.44506 35 ft 0 kts 54°
2026-05-07 13:09 37.45416 126.44511 37 ft 2 kts 54°
2026-05-07 13:10 37.45439 126.44551 36 ft 10 kts 54°
2026-05-07 13:10 37.45480 126.44623 37 ft 10 kts 54°
2026-05-07 13:10 37.45523 126.44705 37 ft 13 kts 65°
2026-05-07 13:10 37.45505 126.44813 37 ft 13 kts 117°
2026-05-07 13:11 37.45447 126.44895 37 ft 13 kts 89°
2026-05-07 13:11 37.45486 126.44999 37 ft 13 kts 57°
2026-05-07 13:11 37.45581 126.45171 37 ft 37 kts 54°
2026-05-07 13:11 37.45701 126.45383 37 ft 15 kts 58°
2026-05-07 13:12 37.45648 126.45473 37 ft 15 kts 149°
2026-05-07 13:12 37.45563 126.45544 37 ft 15 kts 146°
2026-05-07 13:12 37.45478 126.45618 37 ft 15 kts 144°
2026-05-07 13:12 37.45396 126.45692 37 ft 15 kts 144°
2026-05-07 13:13 37.45317 126.45766 36 ft 14 kts 133°
2026-05-07 13:13 37.45320 126.45881 37 ft 14 kts 61°
2026-05-07 13:13 37.45351 126.45939 37 ft 0 kts 54°
2026-05-07 13:14 37.45370 126.45972 37 ft 17 kts 54°
2026-05-07 13:14 37.45452 126.46042 37 ft 13 kts 354°
2026-05-07 13:14 37.45517 126.46002 37 ft 0 kts 324°
2026-05-07 13:16 37.45519 126.46000 37 ft 5 kts 324°
2026-05-07 13:17 37.45758 126.45783 37 ft 86 kts 325°
2026-05-07 13:17 37.46466 126.45136 47 ft 162 kts 321°
2026-05-07 13:17 37.47494 126.44208 663 ft 193 kts 323°
2026-05-07 13:17 37.48617 126.43247 1934 ft 193 kts 327°
2026-05-07 13:18 37.49774 126.42314 2747 ft 204 kts 328°
2026-05-07 13:18 37.51000 126.41328 3387 ft 214 kts 327°
2026-05-07 13:18 37.52302 126.40271 3829 ft 234 kts 326°
2026-05-07 13:18 37.53700 126.39129 4453 ft 246 kts 326°
2026-05-07 13:19 37.55151 126.37940 5154 ft 250 kts 325°
2026-05-07 13:19 37.56710 126.36915 5497 ft 258 kts 338°
2026-05-07 13:19 37.58457 126.36271 5488 ft 262 kts 343°
2026-05-07 13:19 37.60213 126.35696 5493 ft 259 kts 343°
2026-05-07 13:20 37.61953 126.35430 5477 ft 261 kts
2026-05-07 13:20 37.63710 126.36220 5480 ft 273 kts 30°
2026-05-07 13:20 37.65048 126.37902 5479 ft 280 kts 55°
2026-05-07 13:20 37.65789 126.40158 5481 ft 278 kts 69°
2026-05-07 13:21 37.66413 126.42478 5486 ft 281 kts 68°
2026-05-07 13:21 37.66813 126.44859 5468 ft 282 kts 91°
2026-05-07 13:21 37.66310 126.47280 5897 ft 289 kts 111°
2026-05-07 13:21 37.65591 126.49669 6663 ft 293 kts 110°
2026-05-07 13:22 37.64890 126.52100 7461 ft 297 kts 111°
2026-05-07 13:22 37.64114 126.54519 8131 ft 297 kts 122°
2026-05-07 13:22 37.62748 126.56464 8633 ft 299 kts 143°
2026-05-07 13:22 37.61155 126.58205 9333 ft 306 kts 143°
2026-05-07 13:23 37.59555 126.59993 10190 ft 309 kts 143°
2026-05-07 13:23 37.57898 126.61853 10597 ft 332 kts 142°
2026-05-07 13:23 37.56106 126.63873 10947 ft 357 kts 142°
2026-05-07 13:23 37.54231 126.66003 11727 ft 368 kts 142°
2026-05-07 13:24 37.52317 126.68189 12763 ft 374 kts 143°
2026-05-07 13:24 37.50381 126.70402 13848 ft 379 kts 144°
2026-05-07 13:24 37.48416 126.72647 14817 ft 383 kts 144°
2026-05-07 13:24 37.46430 126.74915 15774 ft 387 kts 145°
2026-05-07 13:25 37.44428 126.77199 16840 ft 389 kts 146°
2026-05-07 13:25 37.42417 126.79485 17912 ft 391 kts 147°
2026-05-07 13:25 37.40364 126.81749 18757 ft 393 kts 151°
2026-05-07 13:25 37.38177 126.83840 19424 ft 398 kts 154°
2026-05-07 13:26 37.35914 126.85897 20126 ft 405 kts 155°
2026-05-07 13:26 37.33623 126.88010 20857 ft 412 kts 154°
2026-05-07 13:26 37.31309 126.90187 21504 ft 420 kts 154°
2026-05-07 13:26 37.28949 126.92416 22149 ft 428 kts 154°
2026-05-07 13:27 37.26585 126.94656 22869 ft 435 kts 154°
2026-05-07 13:27 37.24153 126.96959 23607 ft 441 kts 155°
2026-05-07 13:27 37.21692 126.99286 24224 ft 445 kts 155°
2026-05-07 13:27 37.19208 127.01634 24939 ft 449 kts 155°
2026-05-07 13:28 37.16707 127.03998 25682 ft 452 kts 155°
2026-05-07 13:28 37.14187 127.06379 26391 ft 455 kts 155°
2026-05-07 13:28 37.11650 127.08772 27059 ft 458 kts 155°
2026-05-07 13:28 37.09091 127.11181 27699 ft 462 kts 156°
2026-05-07 13:29 37.06513 127.13605 28315 ft 465 kts 156°
2026-05-07 13:29 37.03913 127.16048 28901 ft 469 kts 156°
2026-05-07 13:29 37.01288 127.18514 29391 ft 473 kts 155°
2026-05-07 13:29 36.98653 127.20989 30067 ft 474 kts 155°
2026-05-07 13:30 36.96025 127.23461 30689 ft 473 kts 156°
2026-05-07 13:30 36.93408 127.25920 30946 ft 470 kts 155°
2026-05-07 13:30 36.88158 127.30830 30938 ft 470 kts 155°
2026-05-07 13:31 36.82937 127.35760 30955 ft 475 kts 152°
2026-05-07 13:31 36.78135 127.41608 30966 ft 487 kts 145°
2026-05-07 13:32 36.73427 127.47649 30939 ft 484 kts 147°
2026-05-07 13:32 36.68636 127.53493 30924 ft 481 kts 147°
2026-05-07 13:33 36.63863 127.59308 30936 ft 480 kts 147°
2026-05-07 13:33 36.59096 127.65121 30919 ft 480 kts 147°
2026-05-07 13:34 36.51939 127.73836 30902 ft 480 kts 146°
2026-05-07 13:35 36.47169 127.79630 30916 ft 480 kts 146°
2026-05-07 13:35 36.42394 127.85424 30917 ft 480 kts 146°
2026-05-07 13:36 36.37655 127.91180 30912 ft 480 kts 146°
2026-05-07 13:36 36.32883 127.96965 30898 ft 480 kts 146°
2026-05-07 13:37 36.28090 128.02765 30917 ft 483 kts 146°
2026-05-07 13:37 36.23267 128.08579 30915 ft 485 kts 146°
2026-05-07 13:38 36.18418 128.14409 30906 ft 486 kts 146°
2026-05-07 13:38 36.13477 128.20325 30898 ft 508 kts 145°
2026-05-07 13:38 36.10900 128.23401 30912 ft 520 kts 145°
2026-05-07 13:39 36.08274 128.26542 30918 ft 531 kts 144°
2026-05-07 13:39 36.02907 128.32981 30898 ft 541 kts 144°
2026-05-07 13:40 35.97450 128.39512 30881 ft 551 kts 144°
2026-05-07 13:40 35.91905 128.46136 30889 ft 555 kts 144°
2026-05-07 13:41 35.86360 128.52737 30880 ft 553 kts 144°
2026-05-07 13:41 35.83482 128.55643 30883 ft 534 kts 156°
2026-05-07 13:41 35.80139 128.57556 30898 ft 515 kts 171°
2026-05-07 13:41 35.76740 128.58497 30903 ft 501 kts 182°
2026-05-07 13:42 35.73313 128.58628 30887 ft 484 kts 193°
2026-05-07 13:42 35.66597 128.57821 30891 ft 487 kts 193°
2026-05-07 13:43 35.59800 128.57156 30893 ft 492 kts 192°
2026-05-07 13:43 35.52960 128.56606 30854 ft 496 kts 188°
2026-05-07 13:44 35.46010 128.57767 30889 ft 514 kts 173°
2026-05-07 13:44 35.39486 128.60977 30894 ft 492 kts 162°
2026-05-07 13:44 35.36482 128.62847 30790 ft 477 kts 162°
2026-05-07 13:45 35.33553 128.64647 30732 ft 465 kts 163°
2026-05-07 13:45 35.30683 128.66382 30648 ft 454 kts 163°
2026-05-07 13:45 35.27874 128.68055 30558 ft 444 kts 163°
2026-05-07 13:46 35.23325 128.70741 30437 ft 431 kts 163°
2026-05-07 13:46 35.19770 128.72828 30203 ft 426 kts 163°
2026-05-07 13:46 35.17099 128.74395 29901 ft 425 kts 163°
2026-05-07 13:46 35.14430 128.75962 29461 ft 426 kts 163°
2026-05-07 13:47 35.11753 128.77533 29042 ft 427 kts 163°
2026-05-07 13:47 35.09081 128.79105 28610 ft 427 kts 163°
2026-05-07 13:47 35.06398 128.80678 28168 ft 428 kts 163°
2026-05-07 13:47 35.03714 128.82249 27678 ft 429 kts 163°
2026-05-07 13:48 35.01025 128.83840 27201 ft 431 kts 161°
2026-05-07 13:48 34.98389 128.85653 26964 ft 437 kts 157°
2026-05-07 13:48 34.95804 128.87608 26905 ft 438 kts 156°
2026-05-07 13:48 34.93232 128.89601 26899 ft 438 kts 155°
2026-05-07 13:49 34.90667 128.91591 26906 ft 437 kts 155°
2026-05-07 13:49 34.88967 128.92901 26908 ft 436 kts 156°
2026-05-07 13:49 34.86392 128.94871 26912 ft 436 kts 156°
2026-05-07 13:49 34.83819 128.96825 26912 ft 436 kts 156°
2026-05-07 13:50 34.81243 128.98771 26909 ft 436 kts 156°
2026-05-07 13:50 34.78666 129.00714 26910 ft 436 kts 156°
2026-05-07 13:50 34.75216 129.03312 26893 ft 436 kts 156°
2026-05-07 13:50 34.73511 129.04596 26908 ft 435 kts 156°
2026-05-07 13:51 34.70938 129.06532 26914 ft 435 kts 156°
2026-05-07 13:51 34.68369 129.08464 26917 ft 434 kts 156°
2026-05-07 13:51 34.65801 129.10395 26918 ft 434 kts 156°
2026-05-07 13:51 34.63233 129.12323 26903 ft 434 kts 156°
2026-05-07 13:52 34.60663 129.14247 26907 ft 434 kts 155°
2026-05-07 13:52 34.58096 129.16166 26792 ft 431 kts 155°
2026-05-07 13:52 34.55559 129.18062 26334 ft 427 kts 155°
2026-05-07 13:52 34.53039 129.19943 25857 ft 423 kts 155°
2026-05-07 13:53 34.50575 129.21785 25224 ft 406 kts 155°
2026-05-07 13:53 34.48210 129.23556 24068 ft 397 kts 156°
2026-05-07 13:53 34.45863 129.25301 22725 ft 396 kts 155°
2026-05-07 13:53 34.43516 129.27040 22284 ft 396 kts 155°
2026-05-07 13:54 34.41181 129.28767 21708 ft 400 kts 155°
2026-05-07 13:54 34.38804 129.30529 21142 ft 400 kts 155°
2026-05-07 13:54 34.36429 129.32290 20575 ft 401 kts 155°
2026-05-07 13:54 34.34047 129.34054 20004 ft 401 kts 155°
2026-05-07 13:55 34.31673 129.35815 19431 ft 401 kts 155°
2026-05-07 13:55 34.29288 129.37582 18859 ft 401 kts 156°
2026-05-07 13:55 34.26911 129.39344 18283 ft 401 kts 156°
2026-05-07 13:55 34.24531 129.41107 17633 ft 401 kts 155°
2026-05-07 13:56 34.22154 129.42865 17036 ft 399 kts 155°
2026-05-07 13:56 34.19793 129.44611 16438 ft 397 kts 155°
2026-05-07 13:56 34.17439 129.46350 15876 ft 396 kts 155°
2026-05-07 13:56 34.15095 129.48079 15318 ft 394 kts 154°
2026-05-07 13:57 34.12760 129.49802 14769 ft 393 kts 154°
2026-05-07 13:57 34.10430 129.51520 14219 ft 392 kts 154°
2026-05-07 13:57 34.08104 129.53233 13645 ft 392 kts 153°
2026-05-07 13:57 34.05789 129.54937 13188 ft 387 kts 153°
2026-05-07 13:58 34.03526 129.56613 12995 ft 374 kts 153°
2026-05-07 13:58 34.01363 129.58224 12957 ft 358 kts 153°
2026-05-07 13:58 33.99277 129.59775 12961 ft 349 kts 154°
2026-05-07 13:58 33.97215 129.61301 12969 ft 348 kts 154°
2026-05-07 13:59 33.95150 129.62820 12980 ft 348 kts 154°
2026-05-07 13:59 33.93072 129.64328 12981 ft 349 kts 154°
2026-05-07 13:59 33.91000 129.65829 12901 ft 346 kts 154°
2026-05-07 13:59 33.89020 129.67273 12593 ft 319 kts 154°
2026-05-07 14:00 33.87167 129.68623 11846 ft 306 kts 155°
2026-05-07 14:00 33.85314 129.69959 11232 ft 314 kts 154°
2026-05-07 14:00 33.83455 129.71288 10932 ft 304 kts 158°
2026-05-07 14:00 33.81509 129.72195 10463 ft 299 kts 169°
2026-05-07 14:01 33.79511 129.72840 10161 ft 295 kts 171°
2026-05-07 14:01 33.77523 129.73429 9847 ft 293 kts 172°
2026-05-07 14:01 33.75543 129.74004 9490 ft 292 kts 172°
2026-05-07 14:01 33.73574 129.74570 9155 ft 290 kts 172°
2026-05-07 14:02 33.71624 129.75126 8848 ft 287 kts 172°
2026-05-07 14:02 33.69714 129.75665 8539 ft 285 kts 172°
2026-05-07 14:02 33.67790 129.76204 8215 ft 283 kts 172°
2026-05-07 14:02 33.65881 129.76732 7883 ft 282 kts 172°
2026-05-07 14:03 33.63975 129.77253 7559 ft 280 kts 172°
2026-05-07 14:03 33.62082 129.77761 7247 ft 278 kts 172°
2026-05-07 14:03 33.60202 129.78257 6952 ft 276 kts 172°
2026-05-07 14:03 33.58333 129.78743 6649 ft 274 kts 172°
2026-05-07 14:04 33.56475 129.79221 6358 ft 273 kts 172°
2026-05-07 14:04 33.54625 129.79690 6050 ft 271 kts 172°
2026-05-07 14:04 33.52791 129.80151 5762 ft 268 kts 172°
2026-05-07 14:04 33.50973 129.80606 5465 ft 266 kts 172°
2026-05-07 14:05 33.49215 129.81219 5090 ft 265 kts 155°
2026-05-07 14:05 33.47852 129.82705 4994 ft 271 kts 126°
2026-05-07 14:05 33.47221 129.84837 4985 ft 281 kts 98°
2026-05-07 14:05 33.47466 129.87191 4978 ft 288 kts 71°
2026-05-07 14:06 33.48291 129.89391 4975 ft 292 kts 63°
2026-05-07 14:06 33.49233 129.91553 4965 ft 293 kts 62°
2026-05-07 14:06 33.50193 129.93699 4973 ft 293 kts 62°
2026-05-07 14:06 33.51156 129.95846 4968 ft 291 kts 62°
2026-05-07 14:07 33.52118 129.97983 4971 ft 291 kts 62°
2026-05-07 14:07 33.53076 130.00108 4972 ft 290 kts 62°
2026-05-07 14:07 33.54129 130.02146 4958 ft 286 kts 47°
2026-05-07 14:07 33.55733 130.03539 4977 ft 288 kts 20°
2026-05-07 14:08 33.57605 130.03961 4958 ft 262 kts 357°
2026-05-07 14:08 33.59459 130.03882 4981 ft 268 kts 353°
2026-05-07 14:08 33.61301 130.03733 4967 ft 264 kts 352°
2026-05-07 14:08 33.63118 130.03582 4963 ft 259 kts 352°
2026-05-07 14:09 33.64905 130.03430 4962 ft 256 kts 352°
2026-05-07 14:09 33.66687 130.03276 4973 ft 257 kts 352°
2026-05-07 14:09 33.68468 130.03119 4975 ft 257 kts 352°
2026-05-07 14:09 33.70252 130.02958 4978 ft 258 kts 352°
2026-05-07 14:10 33.72043 130.02793 5007 ft 257 kts 352°
2026-05-07 14:10 33.73793 130.02487 4951 ft 250 kts 335°
2026-05-07 14:10 33.75197 130.01332 4978 ft 245 kts 304°
2026-05-07 14:10 33.76099 129.99626 4983 ft 242 kts 294°
2026-05-07 14:11 33.76864 129.97830 4976 ft 241 kts 292°
2026-05-07 14:11 33.77606 129.96027 4973 ft 240 kts 292°
2026-05-07 14:11 33.78346 129.94224 4969 ft 240 kts 292°
2026-05-07 14:11 33.79082 129.92423 4975 ft 240 kts 292°
2026-05-07 14:12 33.79804 129.90644 4977 ft 240 kts 292°
2026-05-07 14:12 33.80544 129.88819 4969 ft 240 kts 292°
2026-05-07 14:12 33.81278 129.87011 4967 ft 240 kts 292°
2026-05-07 14:12 33.82007 129.85211 4973 ft 240 kts 292°
2026-05-07 14:13 33.82726 129.83431 4976 ft 240 kts 292°
2026-05-07 14:13 33.83460 129.81627 4971 ft 240 kts 292°
2026-05-07 14:13 33.84195 129.79800 4977 ft 236 kts 289°
2026-05-07 14:13 33.84468 129.77947 4974 ft 227 kts 260°
2026-05-07 14:14 33.83868 129.76225 4980 ft 227 kts 230°
2026-05-07 14:14 33.82561 129.75158 4982 ft 233 kts 199°
2026-05-07 14:14 33.80936 129.75079 4982 ft 243 kts 170°
2026-05-07 14:14 33.79419 129.76055 4982 ft 255 kts 140°
2026-05-07 14:15 33.78449 129.77870 4979 ft 265 kts 111°
2026-05-07 14:15 33.78190 129.80056 4984 ft 266 kts 95°
2026-05-07 14:15 33.78169 129.82290 4968 ft 268 kts 92°
2026-05-07 14:15 33.78175 129.84531 4974 ft 268 kts 92°
2026-05-07 14:16 33.78183 129.86774 4973 ft 268 kts 92°
2026-05-07 14:16 33.78196 129.89009 4972 ft 268 kts 92°
2026-05-07 14:16 33.78214 129.91252 4979 ft 267 kts 92°
2026-05-07 14:16 33.78231 129.93484 4972 ft 267 kts 92°
2026-05-07 14:17 33.78251 129.95706 4964 ft 266 kts 92°
2026-05-07 14:17 33.78271 129.97929 4964 ft 265 kts 92°
2026-05-07 14:17 33.78291 130.00147 4964 ft 265 kts 92°
2026-05-07 14:17 33.78313 130.02354 4967 ft 264 kts 92°
2026-05-07 14:18 33.78337 130.04560 4975 ft 264 kts 92°
2026-05-07 14:18 33.78360 130.06763 4975 ft 263 kts 92°
2026-05-07 14:18 33.78380 130.08965 4977 ft 264 kts 92°
2026-05-07 14:18 33.78342 130.11139 4957 ft 251 kts 102°
2026-05-07 14:19 33.77782 130.13047 4818 ft 237 kts 122°
2026-05-07 14:19 33.77017 130.14790 4576 ft 235 kts 122°
2026-05-07 14:19 33.76268 130.16522 4337 ft 233 kts 122°
2026-05-07 14:19 33.75536 130.18220 4108 ft 231 kts 122°
2026-05-07 14:20 33.74787 130.19959 3818 ft 231 kts 122°
2026-05-07 14:20 33.74054 130.21656 3558 ft 231 kts 122°
2026-05-07 14:20 33.73316 130.23366 3335 ft 230 kts 122°
2026-05-07 14:20 33.72584 130.25070 3082 ft 229 kts 122°
2026-05-07 14:21 33.71851 130.26748 2870 ft 225 kts 122°
2026-05-07 14:21 33.71076 130.28365 2558 ft 219 kts 133°
2026-05-07 14:21 33.69916 130.29518 2146 ft 217 kts 152°
2026-05-07 14:21 33.68635 130.30442 2038 ft 212 kts 152°
2026-05-07 14:22 33.67375 130.31353 1975 ft 211 kts 152°
2026-05-07 14:22 33.66113 130.32253 1985 ft 214 kts 152°
2026-05-07 14:22 33.64825 130.33180 1985 ft 218 kts 152°
2026-05-07 14:22 33.63524 130.34120 1978 ft 218 kts 152°
2026-05-07 14:23 33.62227 130.35057 1970 ft 217 kts 152°
2026-05-07 14:23 33.60935 130.35990 1965 ft 216 kts 152°
2026-05-07 14:23 33.59654 130.36917 1961 ft 215 kts 152°
2026-05-07 14:23 33.58378 130.37843 1963 ft 214 kts 152°
2026-05-07 14:24 33.57114 130.38764 1970 ft 213 kts 152°
2026-05-07 14:24 33.55849 130.39683 1969 ft 213 kts 152°
2026-05-07 14:24 33.54585 130.40598 1973 ft 212 kts 152°
2026-05-07 14:24 33.53315 130.41518 1975 ft 213 kts 152°
2026-05-07 14:25 33.52043 130.42439 1984 ft 214 kts 150°
2026-05-07 14:25 33.50985 130.43671 1964 ft 216 kts 120°
2026-05-07 14:25 33.50645 130.45413 1970 ft 218 kts 92°
2026-05-07 14:25 33.50998 130.47162 1959 ft 217 kts 59°
2026-05-07 14:26 33.52023 130.48347 1964 ft 198 kts 22°
2026-05-07 14:26 33.53262 130.48503 1971 ft 168 kts 341°